• In Netherlands
  • List of Countries
  • For 7 days
  • Water Temperature
  • Satellite Maps
  • Weather Map
  • Weather Widgets
  • user-avatar
    Login

    Hourly Weather Natitingou

    Today, 26 March, Sunday

    Time Temperature Precipitation Wind Pressure Humidity
    00:00 +27°C° 0 mm 1 mps 717 mmHg 27%
    01:00 +26°C° 0 mm 1 mps 716 mmHg 36%
    02:00 +25°C° 0 mm 1 mps 716 mmHg 44%
    03:00 +24°C° 0 mm 1 mps 716 mmHg 52%
    04:00 +24°C° 0 mm 1 mps 716 mmHg 58%
    05:00 +24°C° 0 mm 1 mps 716 mmHg 63%
    06:00 +23°C° 0 mm 1 mps 716 mmHg 66%
    07:00 +26°C° 0 mm 1 mps 717 mmHg 57%
    08:00 +30°C° 0 mm 2 mps 717 mmHg 48%
    09:00 +34°C° 0 mm 2 mps 718 mmHg 39%
    10:00 +37°C° 0 mm 2 mps 718 mmHg 30%
    11:00 +40°C° 0 mm 2 mps 718 mmHg 21%
    12:00 +43°C° 0 mm 2 mps 718 mmHg 12%
    13:00 +45°C° 0 mm 2 mps 717 mmHg 11%
    14:00 +45°C° 0 mm 2 mps 716 mmHg 9%
    15:00 +45°C° 0 mm 2 mps 715 mmHg 8%
    16:00 +41°C° 0 mm 2 mps 715 mmHg 10%
    17:00 +38°C° 0 mm 2 mps 714 mmHg 12%
    18:00 +34°C° 0 mm 1 mps 714 mmHg 14%
    19:00 +33°C° 0 mm 1 mps 715 mmHg 17%
    20:00 +31°C° 0 mm 1 mps 715 mmHg 20%
    21:00 +30°C° 0 mm 2 mps 715 mmHg 24%
    22:00 +30°C° 0 mm 2 mps 716 mmHg 29%
    23:00 +30°C° 0 mm 2 mps 716 mmHg 34%

    Tomorrow, 27 March, Monday

    Time Temperature Precipitation Wind Pressure Humidity
    00:00 +30°C° 0 mm 2 mps 716 mmHg 39%
    01:00 +28°C° 0 mm 2 mps 716 mmHg 47%
    02:00 +27°C° 0 mm 2 mps 715 mmHg 56%
    03:00 +26°C° 0 mm 1 mps 715 mmHg 65%
    04:00 +25°C° 0 mm 1 mps 715 mmHg 68%
    05:00 +25°C° 0 mm 1 mps 715 mmHg 72%
    06:00 +25°C° 0 mm 1 mps 715 mmHg 75%
    07:00 +27°C° 0 mm 1 mps 716 mmHg 65%
    08:00 +30°C° 0 mm 1 mps 717 mmHg 56%
    09:00 +33°C° 0 mm 1 mps 718 mmHg 46%
    10:00 +36°C° 0 mm 1 mps 718 mmHg 39%
    11:00 +39°C° 0 mm 1 mps 718 mmHg 31%
    12:00 +42°C° 0 mm 1 mps 718 mmHg 23%
    13:00 +43°C° 0 mm 1 mps 717 mmHg 20%
    14:00 +44°C° 0 mm 1 mps 716 mmHg 17%
    15:00 +45°C° 0 mm 1 mps 715 mmHg 14%
    16:00 +42°C° 0 mm 1 mps 714 mmHg 17%
    17:00 +39°C° 0 mm 1 mps 714 mmHg 21%
    18:00 +35°C° 0 mm 1 mps 714 mmHg 24%
    19:00 +34°C° 0 mm 1 mps 714 mmHg 27%
    20:00 +34°C° 0 mm 1 mps 715 mmHg 29%
    21:00 +34°C° 0 mm 2 mps 716 mmHg 32%
    22:00 +32°C° 0 mm 2 mps 716 mmHg 36%
    23:00 +32°C° 0 mm 2 mps 716 mmHg 39%

    Day after tomorrow, 28 March, Tuesday

    Time Temperature Precipitation Wind Pressure Humidity
    00:00 +31°C° 0 mm 2 mps 716 mmHg 42%
    01:00 +29°C° 0 mm 1 mps 715 mmHg 51%
    02:00 +28°C° 0 mm 1 mps 715 mmHg 59%
    03:00 +26°C° 0 mm 1 mps 714 mmHg 67%
    04:00 +26°C° 0 mm 1 mps 715 mmHg 68%
    05:00 +26°C° 0 mm 1 mps 715 mmHg 68%
    06:00 +26°C° 0 mm 1 mps 715 mmHg 68%
    07:00 +29°C° 0 mm 1 mps 716 mmHg 60%
    08:00 +32°C° 0 mm 2 mps 716 mmHg 51%
    09:00 +35°C° 0 mm 2 mps 717 mmHg 43%
    10:00 +39°C° 0 mm 1 mps 717 mmHg 34%
    11:00 +42°C° 0 mm 1 mps 717 mmHg 25%
    12:00 +43°C° 0 mm 0 mps 717 mmHg 16%
    13:00 +46°C° 0 mm 1 mps 716 mmHg 15%
    14:00 +46°C° 0 mm 1 mps 715 mmHg 13%
    15:00 +46°C° 0 mm 1 mps 713 mmHg 12%
    16:00 +43°C° 0 mm 1 mps 713 mmHg 14%
    17:00 +40°C° 0 mm 1 mps 713 mmHg 16%
    18:00 +36°C° 0 mm 1 mps 713 mmHg 18%
    19:00 +34°C° 0 mm 1 mps 713 mmHg 21%
    20:00 +33°C° 0 mm 1 mps 714 mmHg 24%
    21:00 +31°C° 0 mm 1 mps 715 mmHg 27%
    22:00 +30°C° 0 mm 1 mps 715 mmHg 31%
    23:00 +29°C° 0 mm 1 mps 714 mmHg 35%

    29 March, Wednesday

    Time Temperature Precipitation Wind Pressure Humidity
    00:00 +28°C° 0 mm 1 mps 714 mmHg 39%
    01:00 +28°C° 0 mm 1 mps 714 mmHg 44%
    02:00 +28°C° 0 mm 1 mps 714 mmHg 49%
    03:00 +28°C° 0 mm 2 mps 714 mmHg 54%
    04:00 +27°C° 0 mm 2 mps 714 mmHg 60%
    05:00 +27°C° 0 mm 2 mps 715 mmHg 66%
    06:00 +26°C° 0 mm 2 mps 715 mmHg 72%
    07:00 +28°C° 0 mm 2 mps 716 mmHg 65%
    08:00 +31°C° 0 mm 2 mps 716 mmHg 58%
    09:00 +34°C° 0 mm 2 mps 717 mmHg 50%
    10:00 +38°C° 0 mm 2 mps 717 mmHg 40%
    11:00 +41°C° 0 mm 1 mps 716 mmHg 30%
    12:00 +45°C° 0 mm 1 mps 716 mmHg 19%
    13:00 +41°C° 0 mm 0 mps 715 mmHg 18%
    14:00 +40°C° 0 mm 0 mps 714 mmHg 17%
    15:00 +40°C° 0 mm 0 mps 713 mmHg 16%
    16:00 +41°C° 0 mm 1 mps 713 mmHg 19%
    17:00 +39°C° 0 mm 1 mps 713 mmHg 22%
    18:00 +36°C° 0 mm 1 mps 713 mmHg 24%
    19:00 +34°C° 0 mm 1 mps 713 mmHg 29%
    20:00 +33°C° 0 mm 1 mps 714 mmHg 33%
    21:00 +32°C° 0 mm 1 mps 715 mmHg 38%
    22:00 +31°C° 0 mm 1 mps 715 mmHg 42%
    23:00 +30°C° 0 mm 2 mps 715 mmHg 46%

    30 March, Thursday

    Time Temperature Precipitation Wind Pressure Humidity
    00:00 +29°C° 0 mm 2 mps 715 mmHg 50%
    01:00 +29°C° 0 mm 2 mps 714 mmHg 55%
    02:00 +28°C° 0 mm 1 mps 714 mmHg 59%
    03:00 +27°C° 0 mm 1 mps 714 mmHg 64%
    04:00 +27°C° 0 mm 1 mps 715 mmHg 67%
    05:00 +26°C° 0 mm 1 mps 715 mmHg 71%
    06:00 +26°C° 0 mm 1 mps 716 mmHg 74%
    07:00 +28°C° 0 mm 2 mps 716 mmHg 66%
    08:00 +31°C° 0 mm 2 mps 717 mmHg 58%
    09:00 +34°C° 0 mm 2 mps 717 mmHg 50%
    10:00 +37°C° 0 mm 2 mps 717 mmHg 40%
    11:00 +41°C° 0 mm 1 mps 717 mmHg 31%
    12:00 +44°C° 0 mm 1 mps 716 mmHg 21%
    13:00 +43°C° 0 mm 1 mps 715 mmHg 20%
    14:00 +43°C° 0 mm 1 mps 715 mmHg 18%
    15:00 +42°C° 0 mm 1 mps 714 mmHg 17%
    16:00 +40°C° 0 mm 1 mps 714 mmHg 19%
    17:00 +37°C° 0 mm 1 mps 714 mmHg 22%
    18:00 +34°C° 0 mm 1 mps 714 mmHg 25%
    19:00 +33°C° 0 mm 1 mps 714 mmHg 28%
    20:00 +33°C° 0 mm 1 mps 715 mmHg 31%
    21:00 +32°C° 0 mm 1 mps 715 mmHg 34%
    22:00 +30°C° 0 mm 1 mps 715 mmHg 40%
    23:00 +29°C° 0 mm 1 mps 715 mmHg 46%

    31 March, Friday

    Time Temperature Precipitation Wind Pressure Humidity
    00:00 +27°C° 0 mm 1 mps 714 mmHg 52%
    01:00 +27°C° 0 mm 1 mps 714 mmHg 52%
    02:00 +27°C° 0 mm 1 mps 714 mmHg 52%
    03:00 +27°C° 0 mm 1 mps 714 mmHg 53%
    04:00 +27°C° 0 mm 1 mps 714 mmHg 56%
    05:00 +27°C° 0 mm 1 mps 715 mmHg 59%
    06:00 +27°C° 0 mm 2 mps 716 mmHg 63%
    07:00 +29°C° 0 mm 2 mps 716 mmHg 57%
    08:00 +31°C° 0 mm 2 mps 717 mmHg 52%
    09:00 +35°C° 0 mm 2 mps 717 mmHg 47%
    10:00 +38°C° 0 mm 2 mps 717 mmHg 38%
    11:00 +40°C° 0 mm 1 mps 717 mmHg 30%
    12:00 +43°C° 0 mm 1 mps 717 mmHg 21%
    13:00 +43°C° 0 mm 1 mps 716 mmHg 19%
    14:00 +43°C° 0 mm 1 mps 715 mmHg 16%
    15:00 +44°C° 0 mm 1 mps 714 mmHg 14%
    16:00 +41°C° 0 mm 1 mps 714 mmHg 17%
    17:00 +37°C° 0 mm 1 mps 713 mmHg 20%
    18:00 +34°C° 0 mm 1 mps 713 mmHg 23%
    19:00 +33°C° 0 mm 1 mps 714 mmHg 27%
    20:00 +32°C° 0 mm 2 mps 714 mmHg 31%
    21:00 +31°C° 0 mm 2 mps 715 mmHg 36%
    22:00 +31°C° 0 mm 2 mps 715 mmHg 43%
    23:00 +30°C° 0 mm 2 mps 715 mmHg 50%
    Show more